Weather History for Hill City, KS

Change the Weather History Date:

Monday, December 3, 2012

  Actual Average Record
Temperature  
Mean Temperature 45 °F 33 °F  
Max Temperature 62 °F 45 °F 72 °F (1959)
Min Temperature 27 °F 21 °F -8 °F (1919)
Degree Days  
Heating Degree Days 19    
Moisture  
Dew Point 29 °F    
Average Humidity 59    
Maximum Humidity 92    
Minimum Humidity 32    
Precipitation  
Precipitation 0.00 in 0.04 in 0.22 in (2011)
Month to date precipitation 0.00 0.12  
Year to date precipitation 9.74 22.35  
Sea Level Pressure  
Sea Level Pressure 29.89 in    
Wind  
Wind Speed 9 mph (NNW)    
Max Wind Speed 24 mph    
Max Gust Speed 36 mph    
Visibility 10 miles    
Events      
T = Trace of Precipitation, MM = Missing Value Source: NWS Daily Summary

Daily Weather History Graph

Daily Weather History Graph

Search for Another Location

Airport:

Trip Planner

Search our weather history database for the weather conditions in past years. The results will help you decide how hot, cold, wet, or windy it might be!

Date:

Astronomy

Dec. 03, 2012 Rise Set
Actual Time 7:42 AM CST 5:15 PM CST
Civil Twilight 7:12 AM CST 5:45 PM CST
Nautical Twilight 6:39 AM CST 6:19 PM CST
Astronomical Twilight 6:07 AM CST 6:51 PM CST
Moon 10:03 PM CST (12/3) 11:07 AM CST (12/3)
Length of Visible Light 10h 32m
Length of Day
9h 33m
Waning Gibbous, 78% of the Moon is Illuminated
Dec 3
Waning Gibbous
Dec 6
Last Quarter
Dec 13
New
Dec 19
First Quarter
Dec 28
Full

Hourly Weather History & Observations

Time (CST) Temp. Windchill Dew Point Humidity Pressure Visibility Wind Dir Wind Speed Gust Speed Precip Events Conditions
12:53 AM 41.0 °F 37.1 °F 37.0 °F 86% 29.60 in 9.0 mi South 5.8 mph - N/A   Clear
1:53 AM 39.9 °F 37.8 °F 36.0 °F 86% 29.57 in 9.0 mi SW 3.5 mph - N/A   Clear
2:53 AM 34.0 °F 31.0 °F 32.0 °F 92% 29.57 in 8.0 mi WNW 3.5 mph - N/A   Clear
3:53 AM 32.0 °F 28.7 °F 28.9 °F 88% 29.56 in 10.0 mi South 3.5 mph - N/A   Clear
5:53 AM 32.0 °F 24.2 °F 28.9 °F 88% 29.63 in 9.0 mi NW 9.2 mph - N/A   Clear
6:53 AM 32.0 °F 24.8 °F 28.9 °F 88% 29.67 in 9.0 mi WNW 8.1 mph - N/A   Clear
8:53 AM 46.9 °F - 32.0 °F 56% 29.75 in 10.0 mi North 12.7 mph - N/A   Clear
9:53 AM 53.1 °F - 33.1 °F 47% 29.81 in 10.0 mi NNW 18.4 mph 26.5 mph N/A   Clear
10:53 AM 57.9 °F - 34.0 °F 41% 29.89 in 10.0 mi North 24.2 mph 35.7 mph N/A   Clear
11:53 AM 59.0 °F - 37.0 °F 44% 29.92 in 10.0 mi North 19.6 mph 27.6 mph N/A   Clear
1:53 PM 60.1 °F - 34.0 °F 38% 29.94 in 10.0 mi North 18.4 mph 25.3 mph N/A   Clear
2:53 PM 60.1 °F - 30.0 °F 32% 29.97 in 10.0 mi North 16.1 mph 24.2 mph N/A   Clear
3:53 PM 59.0 °F - 28.9 °F 32% 30.00 in 10.0 mi North 9.2 mph 19.6 mph N/A   Clear
4:53 PM 55.0 °F - 28.0 °F 35% 30.05 in 10.0 mi North 9.2 mph - N/A   Clear
5:53 PM 45.0 °F 41.2 °F 26.1 °F 48% 30.10 in 10.0 mi NNW 6.9 mph - N/A   Clear
6:53 PM 41.0 °F 34.7 °F 24.1 °F 51% 30.13 in 10.0 mi North 10.4 mph - N/A   Clear
7:53 PM 37.9 °F 30.9 °F 21.0 °F 51% 30.15 in 10.0 mi North 10.4 mph - N/A   Clear
8:53 PM 37.0 °F 34.5 °F 19.9 °F 50% 30.16 in 10.0 mi NNW 3.5 mph - N/A   Clear
9:53 PM 32.0 °F 24.8 °F 19.0 °F 59% 30.18 in 10.0 mi West 8.1 mph - N/A   Clear
10:53 PM 30.9 °F 25.2 °F 18.0 °F 59% 30.19 in 10.0 mi West 5.8 mph - N/A   Clear